Weather Service Report


074 
ASUS44 KLUB 281810
RWRTX 
WEST TEXAS WEATHER ROUNDUP
NATIONAL WEATHER SERVICE LUBBOCK TX
100 PM CDT THU AUG 28 2014

NOTE: "FAIR" INDICATES FEW OR NO CLOUDS BELOW 12,000 FEET WITH NO
SIGNIFICANT WEATHER AND/OR OBSTRUCTIONS TO VISIBILITY.

TXZ004-006>008-010-012-014-016-OKZ002-281900-
TEXAS PANHANDLE/OKLAHOMA PANHANDLE
  
CITY           SKY/WX    TMP DP  RH WIND       PRES   REMARKS
AMARILLO       SUNNY     87  46  24 NW8       30.03F                  
BORGER         SUNNY     86  52  30 VRB5      29.99F                  
CANADIAN       MOSUNNY   87  68  54 W8        29.94F                  
DALHART        SUNNY     81  54  39 E5        30.07F                  
DUMAS          SUNNY     81  60  48 N5        30.04F                  
GUYMON         SUNNY     82  58  43 VRB7      29.99S                  
HEREFORD       SUNNY     88  53  29 NW8       30.04F                  
PAMPA          SUNNY     83  57  40 NW8       30.01F                  
PERRYTON       SUNNY     80  64  58 NW9       29.98F                  
$$

TXZ026-029-035-045-048-281900-
SOUTHERN PANHANDLE/SOUTH PLAINS/ROLLING PLAINS
  
CITY           SKY/WX    TMP DP  RH WIND       PRES   REMARKS
CHILDRESS      PTSUNNY   79  67  66 SE13      29.97F                  
SEMINOLE       SUNNY     92  56  29 W8        30.02F                  
LUBBOCK        MOSUNNY   93  59  31 VRB6      30.00F                  
PLAINVIEW      SUNNY     89  62  40 W6        29.99F                  
SNYDER         PTSUNNY   88  64  43 S13       29.99F                  
$$

TXZ052-054-060>062-072-078-127-140-154-169-281900-
PERMIAN BASIN/CONCHO VALLEY/BIG COUNTRY/EDWARDS PLATEAU  
  
CITY           SKY/WX    TMP DP  RH WIND       PRES   REMARKS
ABILENE        SUNNY     93  62  35 S13       29.97F                  
BIG SPRING     PTSUNNY   94  61  33 S13       30.01F                  
BRADY          MOSUNNY   91  61  35 VRB5      29.97F                  
BROWNWOOD      MOSUNNY   91  59  33 E9        29.96F                  
JUNCTION       MOSUNNY   90  63  40 VRB3      29.97F                  
MIDLAND        SUNNY     92  60  34 S10       29.99F                  
ODESSA         SUNNY     92  58  31 SW12      30.00F                  
SAN ANGELO     SUNNY     93  62  35 VRB7      29.97F                  
SONORA         SUNNY     88  64  45 SW8       30.04F                  
SWEETWATER     MOSUNNY   93  58  30 SE9G18    30.02F                  
WINK           SUNNY     96  59  29 W13       29.97F HX  95           
$$

TXZ055-058-074-075-080-082-281900-
FAR WEST/SOUTHWEST MOUNTAINS/TRANS PECOS
  
CITY           SKY/WX    TMP DP  RH WIND       PRES   REMARKS
ALPINE         SUNNY     86  54  33 W10       30.17F                  
DRYDEN           N/A     95  61  32 VRB3      29.96F HX  95           
EL PASO        MOSUNNY   84  57  39 CALM      30.10F                  
FORT STOCKTON  SUNNY     92  56  29 VRB3      30.01F                  
GUADALUPE PASS SUNNY     84  55  36 W16G24    30.20F                  
MARFA          SUNNY     82  57  42 CALM      30.18F                  
PECOS          SUNNY     94  59  30 NW9       29.97F                  
PRESIDIO       FAIR      92  58  32 SW3       30.01F                  
$$

TXZ014-016-019-021>030-083-281900
TEXAS TECH WEST TEXAS MESONET/TEXAS PANHANDLE/NORTHERN SOUTH PLAINS
  
CITY           SKY/WX    TMP DP  RH WIND       PRES   REMARKS
ABERNATHY 5ENE   N/A     90  59  34 SW8       30.01F                  
AMARILLO 9NNE    N/A     87  51  29 W7        30.01S                  
AMARILLO 7SSE    N/A     88  50  27 NW3       30.04S                  
AMHERST 1NE      N/A     88  54  30 NW5       30.02F                  
BOOTLEG 11WNW    N/A     83  44  25 NW3       30.10F                  
CANADIAN 6E      N/A     88  69  54 S3        29.94F                  
CAPROCK CYN SP   N/A     93  59  31 S10       29.95F                  
CHILDRESS 2NNE   N/A     77  68  72 SE12      29.96F                  
CLARENDON 2WSW   N/A     89  62  40 SE6       29.98F                  
CLAUDE 12SW      N/A     83  64  52 NW7       30.02S                  
DIMMITT 2NE      N/A     88  48  25 NE1       30.04S                  
FLOYDADA 2NNE    N/A     86  62  45 S10       30.00F                  
FRIONA 2NE       N/A     87  47  25 SW2       30.06S                  
GOODLETT 3W      N/A     77  67  72 NE3       29.95F                  
HART 3N          N/A     87  57  35 S6        30.03F                  
HEREFORD 2NW     N/A     84  50  30 W1        30.05S                  
MCLEAN 1E        N/A     86  63  46 S12       29.98S                  
MEMPHIS 1NE      N/A     86  66  50 SE13      29.95F                  
MULESHOE 2SSW    N/A     89  46  22 W6        30.04S                  
OLTON 6S         N/A     89  58  34 SW5       30.01F                  
PALO DURO SP     N/A     89  55  31 CALM      30.02F                  
PAMPA 2E         N/A     85  61  44 W6        30.00F                  
PLAINVIEW 1S     N/A     88  60  38 W6        30.00F                  
SILVERTON 7ESE   N/A     92  60  34 S7        29.99F                  
TULIA 2ENE       N/A     88  59  37 SW7       30.01F                  
TURKEY 2WSW      N/A     91  65  42 S12       29.94F                  
UMBARGER 3NNE    N/A     85  49  28 S1        30.04F                  
$$

TXZ033>036-039>041-045>048-281900
TEXAS TECH WEST TEXAS MESONET/SOUTH PLAINS  
  
CITY           SKY/WX    TMP DP  RH WIND       PRES   REMARKS
AIKEN 3WSW       N/A     90  60  36 S5        30.01F                  
ANDREWS 2NE      N/A     93  53  25 S8        30.00F                  
ANTON 6SSW       N/A     90  59  34 SE6       30.00F                  
BROWNFIELD 2S    N/A     90  55  30 W8        30.01F                  
DENVR CTY 7WNW   N/A     88  54  31 W6        30.03F                  
GAIL 2ESE        N/A     92  60  34 S9        29.97F                  
LAMESA 2SE       N/A     91  62  38 SW8       30.00F                  
LEVELLAND 4S     N/A     90  55  29 SW7       30.01F                  
LUBBOCK 3WNW     N/A     91  59  34 SW7       30.00F                  
MORTON 1ENE      N/A     88  53  29 W6        30.03F                  
ODONNELL 1N      N/A     89  57  34 S10       30.00F                  
PLAINS 3N        N/A     90  56  31 W10       30.03F                  
RALLS 1SE        N/A     89  62  39 S12       30.00F                  
REESE CENTER     N/A     90  54  29 SW12      30.00F                  
SEAGRAVES 1SW    N/A     91  55  30 SW7       30.01F                  
SEMINOLE 2NNE    N/A     91  55  29 NW5       30.00F                  
SLATON 2NE       N/A     88  60  38 SW10      29.99F                  
SNYDER 3E        N/A     92  60  35 S12       29.98F                  
SUNDOWN 8SW      N/A     90  57  32 SW7       30.02F                  
TAHOKA 3NNE      N/A     91  60  35 SW9       29.99F                  
WOLFFORTH 6SSW   N/A     91  59  34 SW3       30.01F                  
$$

TXZ031-032-036>038-042>044-281900-
TEXAS TECH WEST TEXAS MESONET/ROLLING PLAINS 
  
CITY           SKY/WX    TMP DP  RH WIND       PRES   REMARKS
ASPERMONT 3NE    N/A     95  61  31 SW10      29.93F HX  95           
FLUVANNA 3WNW    N/A     89  59  36 S13       29.99F                  
GRAHAM 5SSW      N/A     88  60  37 S14       29.98F                  
GUTHRIE 10WSW    N/A     91  62  37 S6        29.94F                  
HASKELL 1NW      N/A     94  57  28 SE6       29.93F                  
JAYTON 1SSE      N/A     94  59  31 S13       29.95F                  
KNOX CITY 3NW    N/A     95  56  26 S7        29.92F                  
LK A HENRY 1NW   N/A     91  62  38 S2        29.96F                  
NORTHFIELD 1S    N/A     88  68  51 SE13      29.94F                  
ODELL 4ENE       N/A     92  60  34 SW8       29.94S                  
PADUCAH 10SW     N/A     81  67  63 E6        29.96S                  
POST 1NE         N/A     93  57  30 S10       29.96F                  
RRING SPRGS 3N   N/A     90  64  42 S14       29.97F                  
SEYMOUR 3NW      N/A     96  58  28 S7        29.92F HX  95           
SPUR 1W          N/A     88  61  39 SW8       29.96F                  
WEINERT 2NNE     N/A     96  63  33 S10       29.93F HX  97           
WHITE RVR 6NE    N/A     91  64  39 S12       29.97F                  
$$

TXZ052-054-060>062-072-078-127-140-154-169-281900-
TEXAS TECH WEST TEXAS MESONET/PERMIAN BASIN/
CONCHO VALLEY/BIG COUNTRY/EDWARDS PLATEAU
  
CITY           SKY/WX    TMP DP  RH WIND       PRES   REMARKS
JUNCTION 1SSW    N/A     91  65  42 N2        29.97F                  
MERTZON 3NNE     N/A     92  64  39 SE9       29.99F                  
SAN ANGELO 7NW   N/A     91  62  36 SE9       29.98F                  
STRLNG CT 4WSW   N/A     92  64  38 S12       30.00F                  
ST LAWRNCE 5SW   N/A     89  59  36 S10       30.01F                  
SWEETWATR 11SW   N/A     92  63  37 S13       30.01S                  
WALL 1E          N/A     91  63  39 SW5G14    29.98F                  
$$

TXZ055-058-074-075-080-082-281900-
TEXAS TECH WEST TEXAS MESONET/FAR WEST/SOUTHWEST MOUNTAINS/TRANS PECOS
  
CITY           SKY/WX    TMP DP  RH WIND       PRES   REMARKS
PRSMN GAP BBNP   N/A     92  59  32 S1        30.00F                  
GUADLPE MTN NP   N/A     81  51  35 SW15      30.20F                  
$$

Return to Home page


Western Regional Climate Center, wrcc@dri.edu